This is the latest recevied weather packets stored in our database for station/object OK2ZAW-23. If no packets are shown the sender has not sent any weather packets the latest 10 day(s).
| Time | Temp. | Humidity | Pressure | Rain* | Wind** | Luminosity | Snow |
|---|---|---|---|---|---|---|---|
| 1777597252 | 3.89° C | 61% | 1025.9 hPa | - | - | 335 W/m² | - |
| 1777596940 | 3.89° C | 61% | 1025.9 hPa | - | - | 335 W/m² | - |
| 1777596626 | 3.89° C | 61% | 1025.8 hPa | - | - | 335 W/m² | - |
| 1777596001 | 3.89° C | 63% | 1025.8 hPa | - | - | 335 W/m² | - |
| 1777595688 | 3.33° C | 63% | 1025.8 hPa | - | - | 335 W/m² | - |
| 1777595375 | 3.33° C | 63% | 1025.9 hPa | - | - | 335 W/m² | - |
| 1777594437 | 2.78° C | 62% | 1025.9 hPa | - | - | 335 W/m² | - |
| 1777593812 | 2.78° C | 64% | 1025.9 hPa | - | - | 335 W/m² | - |
| 1777593498 | 2.78° C | 67% | 1025.9 hPa | - | - | 335 W/m² | - |
| 1777593185 | 2.78° C | 67% | 1025.9 hPa | - | - | 335 W/m² | - |
| 1777592561 | 2.78° C | 60% | 1025.8 hPa | - | - | 335 W/m² | - |
| 1777592247 | 2.78° C | 60% | 1025.9 hPa | - | - | 335 W/m² | - |
| 1777591934 | 2.78° C | 61% | 1025.9 hPa | - | - | 335 W/m² | - |
| 1777591622 | 2.78° C | 58% | 1025.9 hPa | - | - | 335 W/m² | - |
| 1777590997 | 2.78° C | 57% | 1025.9 hPa | - | - | 335 W/m² | - |
| 1777590370 | 2.78° C | 56% | 1026 hPa | - | - | 335 W/m² | - |
| 1777589120 | 3.89° C | 56% | 1025.8 hPa | - | - | 335 W/m² | - |
| 1777588493 | 3.89° C | 55% | 1025.9 hPa | - | - | 335 W/m² | - |
| 1777588181 | 4.44° C | 55% | 1025.9 hPa | - | - | 335 W/m² | - |
| 1777587242 | 4.44° C | 57% | 1025.9 hPa | - | - | 335 W/m² | - |
| 1777586616 | 4.44° C | 54% | 1025.9 hPa | - | - | 335 W/m² | - |
| 1777586303 | 5° C | 55% | 1025.9 hPa | - | - | 335 W/m² | - |
| 1777585991 | 5° C | 56% | 1025.9 hPa | - | - | 335 W/m² | - |
| 1777584113 | 4.44° C | 51% | 1025.9 hPa | - | - | 335 W/m² | - |
| 1777583174 | 5° C | 50% | 1025.9 hPa | - | - | 335 W/m² | - |
* Rain since midnight (hover to see other rain measurements)
** Current wind speed in m/s (hover to see current wind gust speed)